Wind_Speed
28 29 43 66 52 45 42 48 49 45 41 40 40 44 47 42 40 42 40 40 37 35 35 37 33 31 36 32 27 24 26 27 28 26 28 30 29 27 27 27 28 28 29 28
26 48 65 38 44 43 48 47 46 45 39 36 37 42 46 41 37 36 37 38 35 36 33 27 29 34 32 31 27 24 24 24 23 22 24 25 26 25 23 23 25 25 27 27
33 60 34 39 42 41 46 48 47 47 36 40 37 42 42 43 43 40 37 40 36 34 41 39 33 36 31 28 23 23 21 20 22 18 20 22 20 18 17 19 24 25 25 23
33 35 42 41 45 43 49 45 39 39 35 38 32 29 45 42 38 36 37 34 34 33 33 31 26 33 31 25 19 16 18 18 15 18 19 14 12 14 18 20 23 25 25 23
50 29 35 44 54 39 57 33 37 38 41 37 35 29 60 32 30 29 27 27 28 30 27 26 32 30 27 22 19 18 17 14 15 17 12 11 11 15 18 19 21 20 19 22
41 34 35 41 39 42 36 37 38 39 38 27 44 34 60 38 36 32 29 30 29 23 21 19 33 28 27 23 18 14 13 12 14 13 11 12 13 16 17 18 17 17 15 14
31 36 39 36 35 39 40 38 26 25 24 23 32 35 50 38 32 27 29 28 27 24 20 31 30 26 23 21 17 14 10 12 12 10 11 14 12 13 14 15 14 13 15 12
22 26 36 37 45 39 46 46 29 25 17 21 36 41 45 41 37 31 24 23 18 18 23 29 26 26 20 18 15 11 11 11 10 10 11 11 11 12 12 10 11 10 11 6
11 20 28 37 38 38 43 52 54 36 33 29 29 31 39 36 26 22 17 18 14 25 23 25 24 22 17 16 11 9 11 11 9 9 9 9 10 11 9 8 9 6 6 3
13 24 29 27 37 42 46 39 45 43 25 24 26 33 27 13 18 16 18 16 21 19 23 22 24 20 14 14 10 10 11 8 7 8 9 9 9 6 5 5 5 4 4 3
18 15 34 22 37 44 44 48 48 42 37 16 15 21 20 9 11 9 13 20 23 28 25 20 22 16 15 13 10 10 9 6 6 8 9 8 6 5 3 5 3 2 2 1
15 13 27 29 24 36 45 41 42 42 34 36 25 25 8 9 16 11 9 17 25 28 24 21 20 14 16 13 10 8 5 6 5 7 6 5 4 3 3 2 1 1 1 3
13 12 18 24 26 30 31 47 43 43 25 31 23 28 11 4 8 10 15 21 25 26 21 23 19 15 15 12 9 5 5 5 4 3 4 3 2 2 2 0 1 1 2 3
20 19 22 15 12 15 18 38 47 48 39 36 36 15 8 8 11 10 20 28 29 24 21 20 17 15 12 11 7 5 6 2 2 2 4 3 2 2 3 3 1 2 3 5
13 21 20 31 26 26 24 27 45 49 44 40 31 29 15 15 18 16 18 20 21 20 21 18 15 13 11 8 6 7 4 1 1 0 4 1 4 4 4 6 5 4 4 6
17 15 16 17 23 26 36 28 26 46 40 43 31 24 8 22 16 10 14 19 19 24 22 18 16 13 8 7 7 5 3 1 2 1 3 1 4 3 4 4 3 3 2 5
23 17 15 12 12 19 26 31 28 37 41 41 28 19 18 17 10 11 10 18 24 24 22 18 17 13 8 7 6 4 3 3 4 3 0 3 3 4 5 5 6 3 4 6
20 18 11 3 1 4 18 19 24 33 33 41 13 18 20 17 8 10 15 19 22 20 22 18 16 11 8 8 7 5 3 4 6 5 2 3 5 7 7 6 6 10 7 6
15 13 7 6 11 13 13 9 8 25 24 6 26 15 18 13 16 15 13 22 19 18 21 16 14 13 7 7 7 5 4 5 7 5 4 2 6 6 7 6 6 7 7 5
12 12 7 6 5 5 4 9 5 4 17 8 11 16 13 12 12 18 15 22 24 21 18 18 14 10 8 9 7 6 4 5 7 6 5 5 5 3 7 6 5 5 6 9
9 9 11 11 6 10 1 9 6 13 7 9 11 11 23 7 8 16 20 17 25 22 20 18 14 8 8 9 9 7 5 6 8 7 6 6 3 3 4 5 4 3 5 8
2 5 5 4 3 6 10 11 22 13 13 11 7 18 26 16 11 14 17 18 25 21 19 16 14 10 8 8 10 9 7 6 9 8 7 5 4 4 4 5 4 4 6 9
4 12 11 7 8 4 15 19 13 18 17 11 6 9 17 20 21 20 16 21 23 25 21 16 19 12 10 8 10 10 9 7 8 8 7 5 4 5 5 4 6 7 8 10
7 9 8 11 5 14 11 11 18 11 8 13 10 5 3 12 20 24 25 22 22 27 24 19 22 16 10 8 9 11 10 9 8 7 5 5 5 5 5 5 6 7 7 9
11 14 16 14 13 5 17 12 9 11 8 9 11 12 9 5 9 5 4 16 19 17 26 22 25 21 12 9 7 10 11 10 10 7 6 5 5 5 5 5 6 10 8 9
12 17 17 13 14 13 13 13 4 3 6 3 5 12 9 5 3 6 7 11 15 21 18 23 25 25 19 13 9 5 9 10 10 9 7 7 6 5 5 5 4 4 7 7
Wind_Direction
222 219 221 229 224 233 237 241 246 253 254 253 256 260 264 266 265 263 264 267 270 268 270 271 276 287 278 282 279 273 270 271 271 268 275 278 273 271 263 265 271 279 287 294
216 223 233 231 231 233 236 245 250 256 254 257 260 261 265 260 259 263 265 265 262 268 270 276 279 277 273 275 272 265 265 262 268 276 278 276 271 266 262 267 274 283 292 300
223 233 232 231 233 233 238 239 244 250 257 259 263 268 268 264 263 264 262 263 272 270 271 262 271 267 267 273 268 261 259 271 275 283 283 273 267 267 277 281 288 292 302 301
238 243 232 233 234 229 239 235 243 250 252 256 257 269 264 264 262 262 263 264 270 268 273 267 264 257 263 264 256 257 268 276 281 293 276 259 261 262 270 281 292 305 303 303
237 236 233 233 232 229 239 238 242 247 251 259 257 258 265 263 264 262 267 266 266 271 263 254 260 250 253 250 258 269 264 266 286 276 257 257 263 267 282 291 291 293 297 303
247 243 237 238 240 235 242 239 245 250 254 248 248 244 263 261 263 269 270 266 263 257 259 252 235 235 253 248 264 254 256 281 273 259 260 267 275 281 291 291 296 301 309 306
252 247 240 237 241 231 229 233 236 238 238 241 245 244 253 262 263 267 269 266 256 246 246 233 228 235 251 249 246 246 266 272 258 258 273 278 285 282 282 290 295 306 308 305
275 265 236 227 228 228 223 227 225 223 226 241 244 252 259 254 265 265 279 253 238 235 228 217 228 242 243 242 234 246 265 257 258 274 275 282 279 278 288 286 303 313 315 312
311 280 248 237 230 226 227 221 224 241 241 245 253 248 253 256 251 249 264 233 222 198 216 222 235 232 239 230 231 248 257 259 272 273 284 278 277 290 295 297 317 312 320 322
293 287 265 259 226 228 227 222 222 230 232 246 237 242 254 209 230 247 227 209 200 218 217 234 222 221 230 222 229 248 258 268 272 284 283 272 285 280 299 325 324 316 312 318
283 253 264 260 227 218 223 226 221 231 226 236 246 262 277 223 201 197 218 211 206 209 213 237 210 216 221 215 234 249 266 266 278 295 281 287 291 302 4 336 342 351 14 72
265 256 259 257 239 225 225 220 222 218 219 226 243 240 222 199 222 224 202 205 198 208 217 222 205 219 212 218 236 253 263 265 292 298 286 295 309 341 17 8 152 69 199 153
300 244 260 258 263 238 234 222 225 228 229 220 231 250 215 215 192 193 192 179 196 209 208 200 209 213 209 224 225 257 244 268 300 298 297 293 324 99 358 246 206 226 121 176
293 270 250 258 246 320 243 224 225 218 211 225 220 208 214 199 186 173 172 171 192 206 199 202 206 199 218 222 227 232 231 259 303 310 297 2 200 122 68 56 175 197 179 153
280 287 282 258 266 281 292 261 225 220 204 215 222 224 221 178 169 166 153 179 199 197 192 194 189 204 211 211 225 218 206 246 165 289 301 107 166 165 70 80 94 142 186 195
311 289 303 271 252 272 296 258 238 213 203 212 230 176 130 136 133 149 179 177 184 179 176 182 188 197 198 194 211 197 189 179 136 157 305 114 194 130 108 78 79 85 143 192
286 290 327 261 246 261 284 215 226 213 206 206 206 202 178 134 132 124 158 170 166 179 179 183 187 198 196 192 199 178 202 163 145 177 139 108 147 114 138 98 62 52 92 171
269 288 309 332 117 279 273 204 219 211 198 201 153 184 143 167 154 139 157 183 176 182 181 194 189 194 192 199 196 187 211 164 158 185 184 128 123 110 121 109 67 62 90 112
247 266 288 233 190 259 310 173 218 190 176 180 193 198 166 154 161 147 147 151 179 187 191 204 196 200 186 188 182 185 207 166 167 179 178 338 111 105 123 116 104 93 70 72
238 240 260 317 259 231 149 71 75 132 123 114 129 168 188 169 197 178 158 161 161 179 200 213 201 198 193 186 164 190 197 172 168 173 169 175 92 100 123 116 122 95 44 27
227 242 253 272 243 289 358 21 144 168 145 56 88 156 178 154 143 161 187 169 159 173 201 216 206 201 179 175 163 189 193 167 168 183 171 182 124 103 109 137 119 74 38 42
297 221 250 251 232 257 28 46 88 94 110 89 88 172 196 199 179 178 183 178 164 164 178 221 211 210 186 165 170 189 181 168 171 190 187 193 137 140 143 144 129 106 91 64
323 355 340 27 104 132 61 63 86 106 116 131 115 185 212 222 219 220 190 187 179 167 162 224 222 216 200 166 181 188 178 172 173 194 195 175 191 146 134 119 113 121 111 82
337 322 317 342 72 95 53 71 62 92 134 114 100 146 97 204 221 229 227 203 189 194 174 195 222 211 199 174 186 190 183 181 179 195 187 170 197 161 143 128 126 129 128 108
13 4 354 353 354 28 59 52 31 40 9 136 113 106 67 59 147 131 205 206 205 196 182 183 222 212 192 182 189 203 188 188 187 194 180 180 192 169 171 158 162 143 123 118
16 3 360 343 333 339 329 356 301 84 351 54 131 96 68 29 160 155 155 182 193 191 177 183 214 220 206 195 191 200 196 198 198 197 190 192 188 183 183 169 180 141 137 126
Height
3057 3064 3055 3043 3061 3071 3077 3073 3075 3080 3085 3086 3084 3085 3080 3087 3088 3086 3086 3088 3088 3088 3089 3088 3088 3088 3083 3083 3082 3081 3082 3082 3082 3082 3082 3081 3079 3078 3078 3077 3078 3078 3077 3074
3053 3042 3027 3063 3060 3067 3067 3068 3070 3073 3078 3080 3078 3074 3074 3077 3077 3078 3079 3078 3078 3080 3082 3083 3082 3078 3077 3077 3077 3077 3077 3077 3078 3077 3076 3075 3074 3073 3073 3073 3073 3074 3071 3068
3041 3017 3056 3051 3056 3060 3060 3060 3064 3066 3075 3071 3072 3066 3066 3067 3068 3070 3070 3071 3072 3073 3073 3073 3076 3070 3072 3072 3071 3072 3072 3073 3073 3072 3071 3068 3069 3068 3069 3069 3067 3066 3065 3062
3033 3036 3038 3045 3044 3052 3048 3055 3064 3064 3069 3060 3069 3058 3053 3059 3059 3062 3062 3064 3065 3065 3064 3066 3066 3063 3066 3067 3067 3068 3068 3068 3068 3067 3066 3065 3066 3066 3066 3065 3062 3060 3058 3057
3011 3026 3032 3033 3025 3045 3033 3062 3057 3058 3058 3060 3059 3060 3021 3052 3051 3052 3055 3056 3057 3057 3058 3059 3057 3058 3061 3062 3064 3064 3064 3064 3063 3063 3063 3063 3063 3063 3062 3061 3060 3058 3056 3053
3013 3022 3024 3023 3034 3037 3045 3051 3052 3053 3052 3045 3042 3055 3016 3043 3045 3046 3048 3048 3049 3051 3051 3052 3048 3054 3056 3058 3060 3060 3060 3060 3060 3060 3060 3061 3060 3059 3058 3057 3056 3054 3052 3049
3011 3012 3013 3021 3023 3028 3037 3041 3041 3043 3038 3026 3041 3041 3023 3035 3037 3040 3039 3039 3041 3044 3047 3042 3045 3050 3053 3055 3056 3057 3057 3057 3057 3057 3057 3056 3057 3056 3055 3054 3052 3051 3048 3045
3008 3003 3005 3008 3010 3018 3023 3028 3026 3024 3021 3025 3038 3019 3020 3026 3028 3032 3030 3031 3035 3039 3038 3038 3043 3047 3049 3051 3052 3053 3054 3055 3054 3054 3054 3054 3054 3053 3052 3051 3050 3047 3045 3043
3006 2998 2999 3002 3007 3014 3012 3019 3012 3026 3022 3023 3016 3015 3014 3016 3021 3024 3024 3027 3030 3031 3032 3037 3040 3044 3046 3048 3049 3051 3052 3052 3050 3051 3051 3051 3051 3050 3048 3048 3046 3045 3044 3043
3005 2999 2990 2991 3000 3001 3005 3011 3019 3015 3016 3014 3012 3012 3007 3007 3015 3016 3019 3023 3029 3028 3028 3033 3036 3041 3043 3045 3047 3049 3049 3048 3048 3048 3048 3048 3048 3047 3046 3045 3044 3044 3042 3042
3002 3001 2983 2988 2984 2991 2997 2999 3003 3011 3011 3008 3011 3007 3007 3007 3010 3013 3015 3019 3024 3024 3026 3030 3035 3038 3040 3043 3045 3046 3046 3045 3046 3046 3045 3045 3045 3044 3044 3044 3043 3043 3042 3042
2996 2992 2985 2982 2981 2990 2992 2992 2996 2995 2999 3006 3010 3008 3003 3005 3007 3009 3013 3016 3019 3022 3025 3029 3032 3036 3038 3042 3043 3044 3043 3043 3044 3044 3043 3043 3042 3043 3043 3043 3043 3043 3043 3043
2989 2986 2982 2981 2980 2976 2978 2985 2989 2995 3003 3003 3007 3005 3001 3003 3004 3007 3011 3014 3016 3020 3024 3027 3031 3034 3038 3040 3041 3041 3041 3042 3042 3042 3042 3042 3042 3042 3042 3042 3043 3043 3043 3043
2987 2983 2983 2978 2974 2980 2977 2980 2982 2990 2994 2997 2999 3002 3002 3003 3004 3007 3007 3011 3015 3019 3022 3026 3030 3034 3036 3038 3039 3040 3041 3041 3041 3041 3041 3041 3042 3042 3042 3041 3042 3043 3043 3043
2982 2979 2978 2976 2977 2977 2977 2974 2975 2979 2985 2993 2992 2997 2999 3001 3004 3005 3009 3011 3014 3018 3022 3026 3030 3033 3035 3037 3038 3039 3039 3040 3040 3041 3040 3041 3042 3041 3042 3042 3042 3042 3042 3043
2980 2974 2972 2970 2972 2972 2971 2965 2964 2972 2980 2987 2989 2992 2997 2996 3002 3004 3006 3010 3013 3018 3022 3026 3030 3032 3034 3036 3037 3037 3038 3039 3040 3041 3040 3041 3041 3041 3042 3042 3042 3043 3043 3043
2979 2974 2970 2965 2969 2975 2968 2954 2960 2964 2974 2980 2988 2991 2994 3001 3003 3005 3008 3012 3015 3018 3023 3026 3030 3032 3034 3035 3036 3037 3038 3039 3040 3041 3041 3042 3041 3042 3043 3043 3043 3042 3043 3044
2976 2975 2974 2967 2962 2970 2952 2959 2961 2964 2973 2978 2982 2989 2992 2997 3002 3002 3007 3011 3015 3019 3024 3026 3029 3032 3033 3034 3035 3036 3038 3039 3040 3042 3042 3043 3042 3043 3043 3044 3044 3044 3043 3044
2974 2974 2971 2968 2969 2966 2954 2953 2958 2964 2969 2974 2978 2987 2991 2995 2999 3003 3005 3009 3018 3021 3024 3026 3028 3030 3032 3034 3035 3037 3039 3039 3040 3042 3042 3042 3044 3043 3045 3045 3045 3046 3046 3045
2968 2972 2975 2966 2967 2958 2949 2953 2953 2959 2962 2973 2979 2982 2985 2992 2998 3000 3004 3007 3012 3021 3024 3026 3027 3030 3032 3033 3034 3037 3039 3039 3040 3042 3044 3044 3044 3045 3046 3046 3047 3047 3047 3046
2966 2968 2970 2970 2970 2958 2955 2954 2957 2966 2977 2976 2978 2981 2987 2984 2993 2998 3002 3007 3011 3018 3021 3024 3027 3029 3031 3032 3034 3037 3039 3039 3041 3043 3044 3045 3045 3046 3047 3047 3048 3049 3048 3047
2971 2973 2970 2968 2967 2975 2959 2961 2962 2971 2972 2974 2976 2981 2984 2988 2995 2998 3002 3008 3011 3015 3019 3023 3026 3029 3031 3032 3034 3037 3038 3040 3041 3043 3045 3046 3047 3048 3048 3049 3049 3050 3050 3049
2974 2970 2969 2972 2973 2969 2962 2965 2967 2968 2970 2972 2976 2978 2983 2989 2994 2998 3003 3008 3012 3016 3020 3023 3025 3028 3031 3032 3034 3037 3038 3040 3041 3043 3045 3047 3048 3049 3049 3050 3051 3052 3051 3051
2977 2976 2972 2968 2968 2970 2968 2967 2968 2972 2973 2977 2977 2981 2985 2988 2995 3000 3003 3007 3011 3015 3018 3024 3024 3027 3030 3031 3034 3037 3038 3039 3041 3043 3045 3047 3049 3050 3051 3052 3053 3054 3054 3053
2980 2978 2977 2973 2970 2971 2973 2971 2976 2976 2978 2979 2981 2984 2988 2991 2993 2997 3001 3004 3008 3012 3016 3022 3023 3026 3029 3031 3034 3036 3038 3039 3041 3042 3044 3047 3049 3051 3052 3054 3055 3055 3056 3057
2982 2980 2978 2978 2977 2975 2974 2975 2976 2977 2980 2981 2983 2984 2988 2991 2992 2993 2996 3000 3004 3008 3013 3019 3022 3023 3028 3030 3033 3036 3037 3039 3041 3042 3044 3047 3049 3051 3053 3055 3057 3058 3059 3060